Volver al catálogo

DELTA 1 DEB

ActivoPO
NORAD 21364·DEBRIS·🇺🇸 United States

Lanzado Jun 12, 1975 desde Vandenberg Space Force Base

Loading…

Próximos Pases (próximas 24 horas)

TLE

ActualizadoSource: Space-Track

Época: Sep 14, 2026, 02:34 UTC

1 21364U 75052CJ  26257.10735500  .00000579  00000-0  18250-2 0  9997
2 21364  99.6816 198.7460 0253875  90.9024  26.7806 12.97435398668916

Sigue DELTA 1 DEB en tiempo real con AllMySat

Download on the App Store